Minot, ND

7:29 AM CDT on July 28, 2017 (GMT -0500)
Minot International

Weather History for KMOT - May, 2013

Change the Weather History Date:

Saturday, May 25, 2013

  Actual Average Record
Temperature  
Mean Temperature 57 °F 58 °F  
Max Temperature 65 °F 69 °F 92 °F (1931)
Min Temperature 49 °F 46 °F 20 °F (1924)
Degree Days  
Heating Degree Days 10    
Cooling Degree Days 0 1  
Month to date cooling degree days 10 3  
Year to date cooling degree days 10 4  
Growing Degree Days 6 (Base 50)    
Moisture  
Dew Point 51 °F    
Average Humidity 83    
Maximum Humidity 100    
Minimum Humidity 65    
Precipitation  
Precipitation 0.01 in 0.09 in 1.93 in (1963)
Month to date precipitation 3.95 1.93  
Year to date precipitation 5.57 4.82  
Sea Level Pressure  
Sea Level Pressure 30.04 in    
Wind  
Wind Speed 10 mph (East)    
Max Wind Speed 26 mph    
Max Gust Speed 37 mph    
Visibility 5 miles    
Events Fog , Rain    
T = Trace of Precipitation, MM = Missing Value Source: NWS Daily Summary

Daily Weather History Graph

Daily Weather History Graph

Search for Another Location

Airport or City:

Trip Planner

Search our weather history database for the weather conditions in past years. The results will help you decide how hot, cold, wet, or windy it might be!

Date:

Astronomy

May. 25, 2013 Rise Set
Actual Time 5:54 AM CDT 9:30 PM CDT
Civil Twilight 5:14 AM CDT 10:10 PM CDT
Nautical Twilight 4:22 AM CDT 11:02 PM CDT
Astronomical Twilight 3:09 AM CDT 12:16 AM CDT
Moon 10:19 PM CDT (5/25) 6:24 AM CDT (5/25)
Length of Visible Light 16h 55m
Length of Day
15h 36m
Full, 100% of the Moon is Illuminated
May 25
Full
May 31
Last Quarter
Jun 8
New
Jun 16
First Quarter
Jun 23
Full

Hourly Weather History & Observations

Time (CDT) Temp. Dew Point Humidity Pressure Visibility Wind Dir Wind Speed Gust Speed Precip Events Conditions
12:54 AM 50.0 °F 48.9 °F 96% 30.06 in 5.0 mi East 5.8 mph - N/A   Mostly Cloudy
1:45 AM 50.0 °F 48.2 °F 94% 30.03 in 3.0 mi East 3.5 mph - N/A   Partly Cloudy
1:54 AM 48.9 °F 48.0 °F 97% 30.06 in 2.5 mi East 4.6 mph - N/A   Scattered Clouds
2:23 AM 50.0 °F 48.2 °F 94% 30.03 in 4.0 mi East 8.1 mph - N/A   Partly Cloudy
2:34 AM 50.0 °F 48.2 °F 94% 30.03 in 4.0 mi ESE 8.1 mph - N/A   Mostly Cloudy
2:54 AM 50.0 °F 48.9 °F 96% 30.05 in 5.0 mi ESE 8.1 mph - N/A   Mostly Cloudy
3:10 AM 50.0 °F 48.2 °F 94% 30.03 in 4.0 mi ESE 8.1 mph - N/A   Scattered Clouds
3:35 AM 50.0 °F 48.2 °F 94% 30.02 in 4.0 mi ESE 6.9 mph - N/A   Mostly Cloudy
3:54 AM 51.1 °F 48.9 °F 92% 30.05 in 5.0 mi ESE 8.1 mph - N/A   Overcast
4:13 AM 51.8 °F 48.2 °F 88% 30.03 in 5.0 mi SE 6.9 mph - N/A   Overcast
4:54 AM 51.1 °F 50.0 °F 96% 30.04 in 4.0 mi SE 5.8 mph - N/A   Overcast
5:54 AM 51.1 °F 50.0 °F 96% 30.06 in 2.5 mi SE 4.6 mph - N/A   Overcast
6:30 AM 51.8 °F 48.2 °F 88% 30.06 in 1.0 mi East 4.6 mph - N/A   Overcast
6:37 AM 51.8 °F 50.0 °F 94% 30.06 in 0.8 mi East 3.5 mph - N/A   Overcast
6:51 AM 51.8 °F 50.0 °F 94% 30.06 in 1.0 mi East 3.5 mph - N/A   Overcast
6:54 AM 51.1 °F 50.0 °F 96% 30.08 in 1.0 mi East 4.6 mph - N/A   Overcast
7:16 AM 51.8 °F 50.0 °F 94% 30.07 in 0.5 mi East 8.1 mph - N/A Fog Fog
7:54 AM 51.1 °F 50.0 °F 96% 30.09 in 0.5 mi ENE 5.8 mph - N/A Fog Fog
8:01 AM 51.8 °F 50.0 °F 94% 30.06 in 1.2 mi ENE 6.9 mph - N/A   Overcast
8:20 AM 51.8 °F 50.0 °F 94% 30.06 in 0.2 mi ENE 9.2 mph - N/A Fog Fog
8:54 AM 51.1 °F 48.9 °F 92% 30.09 in 0.2 mi ENE 6.9 mph - N/A Fog Fog
8:58 AM 51.8 °F 48.2 °F 88% 30.06 in 3.0 mi ENE 8.1 mph - N/A   Overcast
9:34 AM 51.8 °F 50.0 °F 94% 30.06 in 1.5 mi East 10.4 mph - N/A   Overcast
9:54 AM 52.0 °F 48.9 °F 89% 30.08 in 1.5 mi East 10.4 mph - N/A   Overcast
10:01 AM 51.8 °F 50.0 °F 94% 30.05 in 2.0 mi East 10.4 mph - N/A   Overcast
10:54 AM 53.1 °F 50.0 °F 89% 30.06 in 2.0 mi ENE 9.2 mph - N/A   Overcast
11:01 AM 53.6 °F 50.0 °F 88% 30.05 in 6.0 mi East 8.1 mph - N/A   Overcast
11:54 AM 55.0 °F 51.1 °F 86% 30.10 in 4.0 mi East 5.8 mph - N/A   Overcast
12:54 PM 57.9 °F 52.0 °F 81% 30.06 in 9.0 mi ENE 12.7 mph - N/A   Overcast
1:01 PM 57.2 °F 51.8 °F 82% 30.05 in 9.0 mi East 10.4 mph - N/A   Mostly Cloudy
1:54 PM 57.0 °F 51.1 °F 81% 30.08 in 9.0 mi East 11.5 mph - N/A   Overcast
2:54 PM 59.0 °F 53.1 °F 81% 30.08 in 10.0 mi East 11.5 mph - N/A   Overcast
3:24 PM 62.6 °F 53.6 °F 72% 30.00 in 9.0 mi East 17.3 mph - N/A   Mostly Cloudy
3:31 PM 62.6 °F 53.6 °F 72% 30.00 in 9.0 mi East 17.3 mph - N/A   Scattered Clouds
3:54 PM 62.1 °F 53.1 °F 72% 30.02 in 10.0 mi ESE 13.8 mph 28.8 mph N/A   Clear
4:54 PM 62.1 °F 54.0 °F 75% 30.06 in 10.0 mi East 8.1 mph - N/A   Partly Cloudy
5:54 PM 61.0 °F 55.9 °F 83% 30.03 in 7.0 mi ESE 11.5 mph - 0.01 in Rain Light Rain
6:54 PM 61.0 °F 55.9 °F 83% 30.02 in 7.0 mi ENE 6.9 mph - 0.00 in   Clear
7:54 PM 62.1 °F 57.0 °F 84% 29.97 in 10.0 mi ESE 12.7 mph - N/A   Clear
8:54 PM 63.0 °F 51.1 °F 65% 29.95 in 10.0 mi ESE 9.2 mph 16.1 mph N/A   Clear
9:54 PM 63.0 °F 50.0 °F 63% 29.93 in 10.0 mi SE 20.7 mph 31.1 mph N/A   Clear
10:54 PM 63.0 °F 54.0 °F 72% 29.94 in 10.0 mi SE 20.7 mph 28.8 mph N/A   Clear
11:54 PM 60.1 °F 55.0 °F 83% 29.98 in 10.0 mi ESE 15.0 mph 21.9 mph N/A   Clear